This demonstration page uses our WeatherBlox Daily Observations layout. Learn more.

Left ArrowRight Arrow

39.08367, -84.50855

Hourly Observations for September 5, 2015

Temp ( °F °C ) Dew Point ( °F °C ) Humidity (%) Winds ( mph kmh ) Pressure ( in mb ) Visibility ( mi km ) Precip ( " mm )
12:53 am 00:53 Clear 67 19.4 67 19.4 100 100 SW 3 6 30.07 1018 10 16 0.00 0.00
1:53 am 01:53 Clear 66 18.9 66 18.9 100 100 Calm 30.06 1018 7 11 0.00 0.00
2:47 am 02:47 Clear with Mist and Fog 64 18 64 18 100 100 ENE 3 6 30.06 1018 2 2 0.00 0.00
2:53 am 02:53 Clear with Mist and Fog 64 17.8 64 17.8 100 100 Calm 30.06 1018 1 1 0.00 0.00
3:10 am 03:10 Clear with Mist and Fog 66 19 66 19 100 100 Calm 30.06 1018 5 8 0.00 0.00
3:53 am 03:53 Clear 66 18.9 66 18.9 100 100 Calm 30.08 1019 8 13 0.00 0.00
4:41 am 04:41 Mostly Cloudy with Mist and Fog 63 17.2 63 17.2 100 100 Calm 30.09 1019 1 1 0.00 0.00
4:51 am 04:51 Mostly Clear with Mist and Fog 64 18 64 18 100 100 Calm 30.09 1019 2 3 0.00 0.00
4:53 am 04:53 Mostly Clear with Mist and Fog 64 17.8 64 17.8 100 100 Calm 30.10 1019 3 5 0.00 0.00
5:15 am 05:15 Clear with Mist and Fog 63 17.2 63 17.2 100 100 Calm 30.09 1019 1 1 0.00 0.00
5:22 am 05:22 Mostly Cloudy with Fog 64 18 64 18 100 100 Calm 30.09 1019 1 1 0.00 0.00
5:29 am 05:29 Mostly Cloudy with Fog 63 17.2 63 17.2 100 100 Calm 30.09 1019 0 0 0.00 0.00
5:48 am 05:48 Mostly Cloudy with Mist and Fog 64 18 64 18 100 100 Calm 30.09 1019 1 2 0.00 0.00
5:51 am 05:51 Partly Cloudy with Mist and Fog 64 18 64 18 100 100 Calm 30.09 1019 2 3 0.00 0.00
5:53 am 05:53 Partly Cloudy with Mist and Fog 64 17.8 64 17.8 100 100 Calm 30.11 1020 2 3 0.00 0.00
5:58 am 05:58 Mostly Cloudy with Mist and Fog 63 17 63 17 100 100 Calm 30.09 1019 1 2 0.00 0.00
6:06 am 06:06 Mostly Cloudy with Mist and Fog 64 17.8 64 17.8 100 100 Calm 30.09 1019 1 1 0.00 0.00
6:11 am 06:11 Clear with Mist and Fog 64 17.8 64 17.8 100 100 Calm 30.09 1019 3 4 0.00 0.00
6:18 am 06:18 Clear with Mist and Fog 63 17 63 17 100 100 Calm 30.09 1019 5 8 0.00 0.00
6:21 am 06:21 Mostly Cloudy with Mist and Fog 62 16.7 62 16.7 100 100 Calm 30.09 1019 1 2 0.00 0.00
6:28 am 06:28 Mostly Cloudy with Fog 63 17 63 17 100 100 Calm 30.09 1019 1 1 0.00 0.00
6:53 am 06:53 Mostly Clear with Patchy Fog 63 17.2 63 17.2 100 100 Calm 30.13 1020 10 16 0.00 0.00
7:53 am 07:53 Sunny 64 17.8 64 17.8 100 100 Calm 30.14 1021 10 16 0.00 0.00
8:53 am 08:53 Sunny 69 20.6 67 19.4 93 93 Calm 30.15 1021 10 16 0.00 0.00
9:53 am 09:53 Sunny 74 23.3 67 19.4 79 79 Calm 30.15 1021 10 16 0.00 0.00
10:53 am 10:53 Sunny 78 25.6 69 20.6 74 74 Calm 30.16 1021 10 16 0.00 0.00
11:53 am 11:53 Sunny 81 27.2 70 21.1 69 69 Calm 30.15 1021 9 14 0.00 0.00
12:53 pm 12:53 Sunny 83 28.3 72 22.2 70 70 Calm 30.14 1021 8 13 0.00 0.00
1:53 pm 13:53 Sunny 87 30.6 72 22.2 61 61 Calm 30.12 1020 10 16 0.00 0.00
2:53 pm 14:53 Sunny 88 31.1 71 21.7 57 57 ENE 3 6 30.11 1020 10 16 0.00 0.00
3:53 pm 15:53 Mostly Sunny 89 31.7 68 20 50 50 Calm 30.09 1019 10 16 0.00 0.00
4:53 pm 16:53 Mostly Sunny 89 31.7 70 21.1 53 53 Calm 30.07 1018 10 16 0.00 0.00
5:53 pm 17:53 Mostly Sunny 90 32.2 68 20 48 48 Calm 30.06 1018 10 16 0.00 0.00
6:16 pm 18:16 Sunny with Nearby Thunderstorms 88 31 70 21 55 55 ENE 5 7 30.06 1018 10 16 0.00 0.00
6:53 pm 18:53 Partly Cloudy with Thunderstorms 80 26.7 73 22.8 79 79 N 3 6 30.08 1019 10 16 0.00 0.00
7:53 pm 19:53 Mostly Cloudy with Thunderstorms 74 23.3 66 18.9 76 76 NW 12 19 30.12 1020 10 16 0.00 0.03
8:16 pm 20:16 Cloudy with Thunderstorms 72 22 68 20 88 88 SE 10 17 30.09 1019 6 10 0.00 0.00
8:48 pm 20:48 Partly Cloudy 75 24 66 19 74 74 Calm 30.09 1019 10 16 0.00 0.00
8:53 pm 20:53 Mostly Clear 74 23.3 66 18.9 76 76 E 5 7 30.10 1019 10 16 0.03 0.76
9:53 pm 21:53 Clear 69 20.6 68 20 96 96 ESE 5 7 30.12 1020 9 14 0.00 0.00
10:53 pm 22:53 Clear 68 20 68 20 100 100 Calm 30.12 1020 8 13 0.00 0.00
11:53 pm 23:53 Clear with Mist and Fog 67 19.4 67 19.4 100 100 Calm 30.12 1020 6 10 0.00 0.00

Powered by AerisWeather